This is the latest recevied weather packets stored in our database for station/object SP6PWT-13. If no packets are shown the sender has not sent any weather packets the latest 10 day(s).
| Time | Temp. | Humidity | Pressure | Rain* | Wind** | Luminosity | Snow |
|---|---|---|---|---|---|---|---|
| 1777894351 | 24.44° C | 35% | 996.3 hPa | 0 mm | - | 604 W/m² | - |
| 1777894051 | 25° C | 34% | 996.4 hPa | 0 mm | - | 491 W/m² | - |
| 1777893749 | 25° C | 34% | 996.4 hPa | 0 mm | - | 518 W/m² | - |
| 1777893449 | 25.56° C | 34% | 996.4 hPa | 0 mm | - | 619 W/m² | - |
| 1777893148 | 25° C | 34% | 996.4 hPa | 0 mm | - | 652 W/m² | - |
| 1777892848 | 24.44° C | 35% | 996.4 hPa | 0 mm | - | 640 W/m² | - |
| 1777892547 | 23.89° C | 36% | 996.8 hPa | 0 mm | - | 597 W/m² | - |
| 1777892247 | 24.44° C | 35% | 996.6 hPa | 0 mm | - | 601 W/m² | - |
| 1777891947 | 24.44° C | 36% | 996.6 hPa | 0 mm | - | 651 W/m² | - |
| 1777891646 | 24.44° C | 35% | 996.7 hPa | 0 mm | - | 709 W/m² | - |
| 1777891345 | 23.89° C | 37% | 996.7 hPa | 0 mm | - | 675 W/m² | - |
| 1777891045 | 23.89° C | 36% | 996.9 hPa | 0 mm | - | 605 W/m² | - |
| 1777890744 | 23.89° C | 36% | 996.9 hPa | 0 mm | - | 661 W/m² | - |
| 1777890444 | 23.89° C | 36% | 997 hPa | 0 mm | - | 623 W/m² | - |
| 1777890143 | 23.33° C | 37% | 997.2 hPa | 0 mm | - | 544 W/m² | - |
| 1777889843 | 23.33° C | 37% | 997.3 hPa | 0 mm | - | 413 W/m² | - |
| 1777889543 | 23.33° C | 37% | 997 hPa | 0 mm | - | 314 W/m² | - |
| 1777889242 | 22.78° C | 37% | 997.4 hPa | 0 mm | - | 342 W/m² | - |
| 1777888942 | 23.33° C | 37% | 997.4 hPa | 0 mm | - | 356 W/m² | - |
| 1777888641 | 22.78° C | 37% | 997.2 hPa | 0 mm | - | 480 W/m² | - |
| 1777888341 | 23.33° C | 37% | 997.1 hPa | 0 mm | - | 459 W/m² | - |
| 1777888041 | 23.33° C | 36% | 997.2 hPa | 0 mm | - | 392 W/m² | - |
| 1777887740 | 23.33° C | 37% | 997.4 hPa | 0 mm | - | 494 W/m² | - |
| 1777887439 | 22.78° C | 38% | 997.5 hPa | 0 mm | - | 533 W/m² | - |
| 1777887138 | 23.33° C | 37% | 997.1 hPa | 0 mm | - | 523 W/m² | - |
* Rain latest hour (hover to see other rain measurements)
** Current wind speed in m/s (hover to see current wind gust speed)